{"data":{"norad_id":59674,"intl_designator":"2024-084W","name":"STARLINK-31875","alt_names":[],"object_type":"PAYLOAD","status":"ACTIVE","operator":null,"country":"US","launch_date":"2024-05-06","launch_site_code":"AFETR","launch_vehicle":null,"mission":null,"orbit_class":"UNKNOWN","rcs_meters":null,"size_class":null,"mass_kg":null,"dimensions":null,"purposes":["comms"],"wikipedia_slug":null,"has_3d_model":false,"image_url":null,"decayed_at":null,"tle_current":{"epoch":"2026-09-21T18:40:46.716672Z","epoch_age_seconds":60888,"freshness":"FRESH","line1":"1 59674U 24084W   26264.77831848  .00000589  00000+0  30934-4 0  9999","line2":"2 59674  43.0009  10.8192 0000825 251.9376 108.1386 15.27581951134401","mean_motion":15.27581951,"eccentricity":8.25e-5,"inclination_deg":43.0009,"raan_deg":10.8192,"arg_perigee_deg":251.9376,"mean_anomaly_deg":108.1386,"bstar":3.0934e-5,"rev_number":13440,"period_min":94.266628317868,"perigee_km":482.47720667904,"apogee_km":483.60930142096,"semimajor_km":6861.18025405,"source":"CELESTRAK","updated_at":"2026-09-22T09:00:49.030161Z"}}}